File timestamp: Tue Sep 13 02:00:00 2016, Internal temp: 15.7928466796875
1473732001, 0.000721001531928778, -0.136457920074463, 0.170472949743271, 32147, 31381, 23429, 143.869934082031
1473732002, 0.00709361955523491, -0.13719867169857, 0.17125578224659, 32157, 31384, 23427, NaN
1473732002, 0.0132018849253654, -0.137519046664238, 0.171320140361786, 32140, 31385, 23433, NaN
1473732003.004, 0.0196491647511721, -0.136789187788963, 0.171189114451408, 32139, 31376, 23439, NaN
1473732004.004, 0.0257674865424633, -0.137449219822884, 0.171824499964714, 32143, 31383, 23420, NaN
1473732005.004, 0.0300947725772858, -0.137835651636124, 0.172260135412216, 32145, 31368, 23442, NaN
1473732006.004, 0.0335135869681835, -0.137352108955383, 0.172018364071846, 32148, 31372, 23435, NaN
1473732007.004, 0.0353007949888706, -0.136817902326584, 0.17234094440937, 32136, 31379, 23432, NaN
1473732008.004, 0.0364947728812695, -0.136153981089592, 0.171649098396301, 32162, 31376, 23431, NaN
1473732009.004, 0.0358616374433041, -0.136577367782593, 0.171571612358093, 32157, 31383, 23434, NaN
1473732010.004, 0.0349864736199379, -0.136730909347534, 0.171719789505005, 32163, 31369, 23417, NaN
1473732011.004, 0.0329030118882656, -0.136522501707077, 0.171755969524384, 32142, 31370, 23436, NaN
1473732012.004, 0.029728751629591, -0.136263951659203, 0.172617346048355, 32151, 31380, 23425, NaN
1473732013.004, 0.026160255074501, -0.136991783976555, 0.172926068305969, 32142, 31370, 23441, NaN
1473732014.004, 0.0234106089919806, -0.13730600476265, 0.172274947166443, 32145, 31370, 23434, NaN
1473732015.004, 0.0214450005441904, -0.137093558907509, 0.171839386224747, 32144, 31380, 23422, NaN
1473732016.004, 0.0208459291607141, -0.137248307466507, 0.172558784484863, 32144, 31381, 23444, NaN
1473732016.004, 0.0218113921582699, -0.137054771184921, 0.172693803906441, 32154, 31374, 23434, NaN
1473732017.012, 0.0240748059004545, -0.137485221028328, 0.17242819070816, 32145, 31369, 23427, NaN
1473732018.012, 0.0259538646787405, -0.136946007609367, 0.172800064086914, 32153, 31383, 23422, NaN
1473732019.012, 0.0263741388916969, -0.136969938874245, 0.173369243741035, 32160, 31371, 23425, NaN
1473732020.012, 0.0263472869992256, -0.136718153953552, 0.172588318586349, 32142, 31378, 23432, NaN
1473732020.012, 0.0251089688390493, -0.137126103043556, 0.173166945576668, 32136, 31379, 23435, NaN
1473732021.02, 0.0214790813624859, -0.137030884623528, 0.172177508473396, 32157, 31380, 23433, NaN
1473732022.02, 0.0158704537898302, -0.136421710252762, 0.172317370772362, 32157, 31372, 23430, NaN
1473732023.02, 0.00990681070834398, -0.136024907231331, 0.172388777136803, 32153, 31387, 23437, NaN
1473732024.02, 0.00499270157888532, -0.135637983679771, 0.172636449337006, 32144, 31370, 23427, NaN
1473732025.02, 0.00177503225859255, -0.134635642170906, 0.172022253274918, 32161, 31378, 23439, NaN
1473732026.02, -0.000583945075049996, -0.134952262043953, 0.172055795788765, 32142, 31380, 23439, NaN
1473732027.02, -0.00157634890638292, -0.1349186450243, 0.17221400141716, 32144, 31380, 23423, NaN
1473732028.02, -0.00215260148979723, -0.135584190487862, 0.172565773129463, 32157, 31383, 23421, NaN
1473732029.02, -0.00306671392172575, -0.136228159070015, 0.172325849533081, 32138, 31381, 23439, NaN
1473732030.02, -0.00642805639654398, -0.135763883590698, 0.172148510813713, 32164, 31375, 23425, NaN
1473732031.02, -0.0121480794623494, -0.13575679063797, 0.172215774655342, 32147, 31388, 23433, NaN
1473732032.02, -0.0186268333345652, -0.135715082287788, 0.172308206558228, 32148, 31384, 23443, NaN
1473732033.02, -0.0239741392433643, -0.136122554540634, 0.17181807756424, 32163, 31364, 23435, NaN
1473732034.02, -0.028068957850337, -0.135191470384598, 0.172281295061111, 32151, 31363, 23435, NaN
1473732035.02, -0.0304142236709595, -0.134270429611206, 0.171771913766861, 32153, 31380, 23424, NaN
1473732036.02, -0.0299348477274179, -0.133634820580482, 0.171275332570076, 32153, 31371, 23424, NaN
1473732037.02, -0.0273162927478552, -0.133935540914536, 0.171332910656929, 32140, 31373, 23423, NaN
1473732038.02, -0.0234436839818954, -0.133319988846779, 0.171148806810379, 32147, 31371, 23439, NaN
1473732039.02, -0.0204407423734665, -0.13290698826313, 0.171087071299553, 32133, 31367, 23441, NaN
1473732040.02, -0.0183807332068682, -0.133044824004173, 0.17110176384449, 32153, 31371, 23429, NaN
1473732041.02, -0.0169459730386734, -0.132429197430611, 0.171140044927597, 32147, 31384, 23424, NaN
1473732042.02, -0.0157471243292093, -0.133129879832268, 0.170588180422783, 32151, 31374, 23443, NaN
1473732043.02, -0.0147395133972168, -0.133492305874825, 0.170189499855042, 32137, 31372, 23443, NaN
1473732044.02, -0.0145012680441141, -0.134424716234207, 0.170357078313828, 32146, 31374, 23431, NaN
1473732045.028, -0.0141191780567169, -0.134459272027016, 0.169926285743713, 32167, 31379, 23425, NaN
1473732046.028, -0.0134402941912413, -0.134377151727676, 0.170399263501167, 32143, 31381, 23441, NaN
1473732047.028, -0.0121331550180912, -0.133249223232269, 0.171400710940361, 32149, 31380, 23438, NaN
1473732048.028, -0.0102651659399271, -0.13291023671627, 0.17084464430809, 32153, 31377, 23440, NaN
1473732048.028, -0.00823023170232773, -0.132474452257156, 0.169963091611862, 32148, 31382, 23437, NaN
1473732049.036, -0.00617206981405616, -0.132219567894936, 0.170280992984772, 32146, 31381, 23433, NaN
1473732050.036, -0.00423728907480836, -0.133100390434265, 0.171153619885445, 32161, 31374, 23420, NaN
1473732051.036, -0.00200221873819828, -0.133791700005531, 0.170772582292557, 32149, 31389, 23433, NaN
1473732052.036, -0.000661449506878853, -0.133752748370171, 0.170662924647331, 32152, 31372, 23437, NaN
1473732052.036, -0.000680908851791173, -0.133384183049202, 0.171002373099327, 32159, 31381, 23429, NaN
1473732053.042, -0.000777568260673434, -0.134329780936241, 0.169979438185692, 32154, 31376, 23428, NaN
1473732054.042, -0.000688092492055148, -0.134801492094994, 0.169811472296715, 32144, 31383, 23446, NaN
1473732055.042, -0.000307667010929435, -0.135262757539749, 0.169086381793022, 32154, 31373, 23442, NaN
1473732056.042, -9.97488605207764e-05, -0.134844243526459, 0.16900409758091, 32144, 31382, 23427, 142.431564331055
1473732057.042, 0.000621289305854589, -0.135692283511162, 0.168969020247459, 32171, 31380, 23423, NaN
1473732058.042, 0.00173503451514989, -0.135484516620636, 0.168984413146973, 32154, 31375, 23429, NaN
1473732059.042, 0.00258378288708627, -0.135368257761002, 0.168577075004578, 32154, 31360, 23434, NaN
1473732060.042, 0.00263722334057093, -0.13514032959938, 0.16881899535656, 32153, 31374, 23437, NaN
1473732061.042, 0.00109081855043769, -0.135662272572517, 0.168762430548668, 32133, 31363, 23440, NaN
1473732062.042, -0.00107215950265527, -0.136294022202492, 0.168237775564194, 32141, 31378, 23436, NaN
1473732063.042, -0.00265409704297781, -0.135704770684242, 0.168451726436615, 32156, 31387, 23441, NaN
1473732064.042, -0.00220076995901763, -0.13503922522068, 0.168619140982628, 32132, 31376, 23441, NaN
1473732065.042, -0.000516456027980894, -0.135170072317123, 0.168841794133186, 32148, 31369, 23439, NaN
1473732066.042, 0.00245569902472198, -0.135630831122398, 0.169314861297607, 32150, 31368, 23440, NaN
1473732067.042, 0.00576872425153852, -0.136167109012604, 0.169649124145508, 32144, 31378, 23435, NaN
1473732068.042, 0.00844925455749035, -0.136064544320107, 0.169487342238426, 32148, 31370, 23426, NaN
1473732069.042, 0.0109708858653903, -0.135707214474678, 0.169750615954399, 32142, 31370, 23440, NaN
1473732070.042, 0.0117011470720172, -0.13614085316658, 0.170340210199356, 32147, 31382, 23443, NaN
1473732071.052, 0.00990996323525906, -0.136322274804115, 0.17068575322628, 32142, 31371, 23444, NaN
1473732071.052, 0.00680576730519533, -0.13640059530735, 0.171176820993423, 32141, 31374, 23444, NaN
1473732072.06, 0.00308192637749016, -0.136504426598549, 0.171465799212456, 32147, 31381, 23432, NaN
1473732073.06, 0.000170405328390189, -0.13514743745327, 0.170981422066689, 32164, 31366, 23426, NaN
1473732074.06, -0.00192777602933347, -0.135093092918396, 0.170813545584679, 32152, 31380, 23426, NaN
1473732075.06, -0.00310291186906397, -0.134386703372002, 0.17114545404911, 32152, 31371, 23432, NaN
1473732075.06, -0.00391619466245174, -0.134830266237259, 0.171331435441971, 32141, 31372, 23435, NaN
1473732076.068, -0.00406969524919987, -0.136177808046341, 0.171292528510094, 32156, 31379, 23436, NaN
1473732077.068, -0.00257378956303, -0.135521337389946, 0.171166285872459, 32145, 31383, 23445, NaN
1473732078.068, -8.40142893139273e-05, -0.135724470019341, 0.170655593276024, 32138, 31387, 23450, NaN
1473732079.068, 0.00179074052721262, -0.136061057448387, 0.170851647853851, 32151, 31377, 23425, NaN
1473732079.068, 0.00325563666410744, -0.135280162096024, 0.17070671916008, 32144, 31385, 23434, NaN
1473732080.074, 0.00342891504988074, -0.134989365935326, 0.170819446444511, 32146, 31375, 23440, NaN
1473732081.074, 0.00287217879667878, -0.135903358459473, 0.170512944459915, 32144, 31382, 23447, NaN
1473732082.074, 0.00215863040648401, -0.135101050138474, 0.170082598924637, 32150, 31370, 23431, NaN
1473732083.074, 0.000584178778808564, -0.135340675711632, 0.169578358530998, 32142, 31380, 23438, NaN
1473732084.074, -0.00163718371186405, -0.1357411891222, 0.170101836323738, 32143, 31368, 23448, NaN
1473732085.074, -0.00471575884148479, -0.136250242590904, 0.170488938689232, 32138, 31370, 23446, NaN
1473732086.074, -0.00651596253737807, -0.136486142873764, 0.170416191220284, 32149, 31377, 23427, NaN
1473732087.074, -0.00744446320459247, -0.136680260300636, 0.170541629195213, 32140, 31372, 23433, NaN
1473732088.074, -0.00737963896244764, -0.137108638882637, 0.170742362737656, 32145, 31366, 23424, NaN
1473732089.074, -0.00564287509769201, -0.137042477726936, 0.17087410390377, 32155, 31377, 23443, NaN
1473732090.074, -0.0031983582302928, -0.13648609817028, 0.170910865068436, 32147, 31374, 23422, NaN
1473732091.074, 5.18794149684254e-05, -0.136664018034935, 0.1711036413908, 32155, 31377, 23436, NaN
1473732092.054, 0.00289987889118493, -0.137282386422157, 0.170986503362656, 32147, 31385, 23443, NaN
1473732093.054, 0.0050050294958055, -0.136796444654465, 0.170738235116005, 32161, 31384, 23436, NaN
1473732094.054, 0.00618878984823823, -0.136452183127403, 0.17066390812397, 32135, 31367, 23426, NaN
1473732095.054, 0.00686625437811017, -0.136682718992233, 0.170431703329086, 32140, 31372, 23444, NaN
1473732096.054, 0.00657605892047286, -0.13741734623909, 0.170164227485657, 32158, 31372, 23436, NaN
1473732097.064, 0.00517746061086655, -0.137133479118347, 0.170578151941299, 32149, 31385, 23433, NaN
1473732097.064, 0.00322636519558728, -0.136636510491371, 0.170103654265404, 32144, 31374, 23439, NaN
1473732098.072, 0.00188261747825891, -0.137205883860588, 0.169661328196526, 32137, 31380, 23433, NaN
1473732099.072, 0.00134879490360618, -0.13801783323288, 0.169596657156944, 32165, 31365, 23430, NaN
1473732100.072, 0.00236100773327053, -0.138173669576645, 0.169617712497711, 32148, 31381, 23441, NaN
1473732101.072, 0.00558679457753897, -0.138372927904129, 0.169481635093689, 32141, 31373, 23435, NaN
1473732101.072, 0.00800715759396553, -0.138541325926781, 0.16954779624939, 32167, 31379, 23420, NaN
1473732102.08, 0.0106727816164494, -0.13814988732338, 0.169356063008308, 32152, 31373, 23440, NaN
1473732103.08, 0.0120226051658392, -0.138360813260078, 0.169405609369278, 32142, 31366, 23433, NaN
1473732104.08, 0.0126747330650687, -0.138006627559662, 0.169331237673759, 32147, 31375, 23424, NaN
1473732105.08, 0.0130270998924971, -0.138779044151306, 0.170323505997658, 32157, 31377, 23426, NaN
1473732105.08, 0.0120559493079782, -0.139167338609695, 0.170513466000557, 32149, 31371, 23430, NaN
1473732106.086, 0.0106205595657229, -0.138729512691498, 0.170595467090607, 32142, 31379, 23435, NaN
1473732107.086, 0.00959744304418564, -0.139131054282188, 0.170141905546188, 32154, 31372, 23435, NaN
1473732108.086, 0.00745491264387965, -0.139396622776985, 0.169855833053589, 32150, 31374, 23436, NaN
1473732109.086, 0.00401423685252666, -0.139623537659645, 0.169311240315437, 32168, 31375, 23428, NaN
1473732110.086, -0.000816116866189986, -0.138893589377403, 0.169685184955597, 32161, 31376, 23429, 143.038360595703
1473732111.086, -0.00548349879682064, -0.13831889629364, 0.170064181089401, 32149, 31381, 23440, NaN
1473732112.086, -0.0087384320795536, -0.138147428631783, 0.17051400244236, 32146, 31369, 23432, NaN
1473732113.086, -0.0101835113018751, -0.13808211684227, 0.170508906245232, 32165, 31371, 23424, NaN
1473732114.086, -0.00971916038542986, -0.139260649681091, 0.170454114675522, 32164, 31368, 23430, NaN
1473732115.086, -0.00784757826477289, -0.139128655195236, 0.171008661389351, 32142, 31379, 23427, NaN
1473732116.086, -0.00550307612866163, -0.138651549816132, 0.171279981732368, 32144, 31382, 23427, NaN
1473732117.086, -0.00454670563340187, -0.138038292527199, 0.172061026096344, 32163, 31361, 23417, NaN
1473732118.066, -0.00609912443906069, -0.138584449887276, 0.171795547008514, 32146, 31384, 23426, NaN
1473732119.066, -0.0100805386900902, -0.137974604964256, 0.171809688210487, 32141, 31367, 23435, NaN
1473732120.066, -0.0131568405777216, -0.138001427054405, 0.172396183013916, 32141, 31372, 23444, NaN
1473732121.066, -0.0155760459601879, -0.137556999921799, 0.172602772712708, 32145, 31375, 23424, NaN
1473732122.066, -0.0163975618779659, -0.137299954891205, 0.173526391386986, 32159, 31380, 23430, NaN
1473732123.066, -0.0158725753426552, -0.137166902422905, 0.173377111554146, 32152, 31379, 23438, NaN
1473732124.074, -0.0134100923314691, -0.137287482619286, 0.173892915248871, 32159, 31386, 23435, NaN
1473732124.074, -0.0105051537975669, -0.138180106878281, 0.174986109137535, 32150, 31365, 23427, NaN
1473732125.082, -0.0062035652808845, -0.138258323073387, 0.175363093614578, 32137, 31367, 23427, NaN
1473732126.082, -0.00206253561191261, -0.137932643294334, 0.175730958580971, 32156, 31369, 23429, NaN
1473732127.082, 0.000138637740747072, -0.137381166219711, 0.176092281937599, 32141, 31382, 23436, NaN
1473732128.082, 0.000823107489850372, -0.13802932202816, 0.176286458969116, 32140, 31385, 23434, NaN
1473732128.082, 0.000340048951329663, -0.137537956237793, 0.176807180047035, 32135, 31381, 23436, NaN
1473732129.09, -0.00199189782142639, -0.137985870242119, 0.177569732069969, 32151, 31371, 23435, NaN
1473732130.09, -0.0064541706815362, -0.138663113117218, 0.177215605974197, 32145, 31374, 23446, NaN
1473732131.09, -0.0105717843398452, -0.139549970626831, 0.17799137532711, 32156, 31388, 23438, NaN
1473732132.09, -0.013549217954278, -0.139966249465942, 0.179545298218727, 32148, 31370, 23437, NaN
1473732133.09, -0.0144270090386271, -0.140403941273689, 0.179276525974274, 32142, 31378, 23434, NaN
1473732134.09, -0.0129417683929205, -0.140575498342514, 0.179414540529251, 32160, 31373, 23424, NaN
1473732135.09, -0.0100502129644156, -0.141147911548615, 0.179747089743614, 32142, 31373, 23427, NaN
1473732136.09, -0.00625184318050742, -0.140859603881836, 0.179930865764618, 32155, 31387, 23430, NaN
1473732137.09, -0.00316055538132787, -0.14108282327652, 0.180088222026825, 32143, 31372, 23439, NaN
1473732138.09, 0.001097536762245, -0.141997560858727, 0.179964244365692, 32134, 31377, 23449, NaN
1473732139.09, 0.0049327677115798, -0.142194271087646, 0.180704891681671, 32159, 31370, 23426, NaN
1473732140.09, 0.00805446226149797, -0.14224736392498, 0.18108007311821, 32154, 31359, 23435, NaN
1473732141.09, 0.0106627652421594, -0.142783537507057, 0.181007876992226, 32138, 31370, 23446, NaN
1473732142.09, 0.0127794714644551, -0.142787098884583, 0.180402159690857, 32156, 31368, 23436, NaN
1473732143.09, 0.0178781393915415, -0.142117083072662, 0.180151373147964, 32143, 31386, 23435, NaN
1473732144.09, 0.0304668359458447, -0.143004417419434, 0.180092394351959, 32157, 31380, 23428, NaN
1473732145.09, 0.0521197393536568, -0.142976030707359, 0.179286777973175, 32149, 31369, 23434, NaN
1473732146.09, 0.0817782804369926, -0.142409607768059, 0.17953784763813, 32140, 31382, 23445, NaN
1473732147.09, 0.117338560521603, -0.143119394779205, 0.180069848895073, 32149, 31379, 23427, NaN
1473732148.09, 0.128431364893913, -0.14305105805397, 0.180554628372192, 32146, 31376, 23437, NaN
1473732149.09, 0.0916225910186768, -0.142761468887329, 0.181137233972549, 32142, 31374, 23439, NaN
1473732150.09, 0.0597748123109341, -0.142896324396133, 0.182003647089005, 32154, 31372, 23430, NaN
1473732151.1, 0.0325412824749947, -0.142536878585815, 0.181782200932503, 32153, 31368, 23431, NaN
1473732151.1, 0.00957532972097397, -0.142034485936165, 0.181915476918221, 32147, 31379, 23438, NaN
1473732152.108, -0.0094677796587348, -0.141865387558937, 0.181490257382393, 32145, 31384, 23440, NaN
1473732153.108, -0.0249288100749254, -0.14129401743412, 0.181686401367188, 32157, 31378, 23430, NaN
1473732154.108, -0.0371425151824951, -0.141412973403931, 0.181412011384964, 32137, 31369, 23438, NaN
1473732155.108, -0.0464355982840061, -0.141229152679443, 0.181249380111694, 32151, 31379, 23444, NaN
1473732155.108, -0.05312480032444, -0.141593977808952, 0.181883484125137, 32137, 31381, 23436, NaN
1473732156.116, -0.0575151108205318, -0.140798047184944, 0.182056844234467, 32148, 31363, 23439, NaN
1473732157.116, -0.0598981566727161, -0.140294477343559, 0.182188034057617, 32164, 31377, 23436, NaN
1473732158.116, -0.0605508163571358, -0.140360459685326, 0.182484209537506, 32154, 31380, 23426, NaN
1473732159.116, -0.0597340315580368, -0.140233665704727, 0.183390572667122, 32156, 31374, 23438, NaN
1473732159.116, -0.0576918944716454, -0.139690890908241, 0.18328931927681, 32158, 31375, 23420, NaN
1473732160.122, -0.0546509139239788, -0.13981693983078, 0.183604300022125, 32158, 31373, 23433, NaN
1473732161.122, -0.0508195757865906, -0.139818251132965, 0.183402612805367, 32149, 31388, 23441, NaN
1473732162.122, -0.0463880896568298, -0.140062019228935, 0.182996556162834, 32157, 31372, 23429, NaN
1473732163.122, -0.0415283627808094, -0.140606790781021, 0.182257696986198, 32153, 31365, 23428, NaN
1473732164.122, -0.0363941676914692, -0.140682220458984, 0.18169304728508, 32138, 31370, 23440, NaN
1473732165.122, -0.0311215072870255, -0.141230881214142, 0.181925699114799, 32161, 31365, 23429, 140.403335571289
1473732166.122, -0.0258291270583868, -0.141560271382332, 0.182326525449753, 32150, 31375, 23430, NaN
1473732167.122, -0.0206191819161177, -0.141248434782028, 0.182078137993813, 32147, 31377, 23433, NaN
1473732168.122, -0.0155780091881752, -0.140698313713074, 0.181702807545662, 32146, 31373, 23437, NaN
1473732169.122, -0.0107770282775164, -0.140717297792435, 0.181801036000252, 32146, 31372, 23435, NaN
1473732170.122, -0.0062736957333982, -0.140950918197632, 0.182304471731186, 32136, 31380, 23436, NaN
1473732171.122, -0.00211254227906466, -0.141690120100975, 0.182764694094658, 32155, 31359, 23424, NaN
1473732172.102, 0.00167375989258289, -0.141753241419792, 0.181524008512497, 32137, 31369, 23434, NaN
1473732173.102, 0.00506330002099276, -0.140964478254318, 0.1817587018013, 32151, 31365, 23426, NaN
1473732174.102, 0.00804382283240557, -0.141053348779678, 0.182187885046005, 32143, 31373, 23435, NaN
1473732175.102, 0.0106116300448775, -0.141828447580338, 0.181320279836655, 32141, 31370, 23428, NaN
1473732176.102, 0.0127705009654164, -0.141869962215424, 0.180992975831032, 32140, 31377, 23440, NaN
1473732177.11, 0.0145306438207626, -0.141143947839737, 0.180451437830925, 32147, 31368, 23443, NaN
1473732178.11, 0.0152659947052598, -0.141446873545647, 0.180716425180435, 32137, 31371, 23446, NaN
1473732178.11, 0.0118789309635758, -0.141977682709694, 0.181632235646248, 32161, 31358, 23419, NaN
1473732179.118, 0.00539611279964447, -0.141506522893906, 0.181113958358765, 32145, 31367, 23438, NaN
1473732180.118, -0.00313908676616848, -0.140794739127159, 0.18060377240181, 32138, 31386, 23436, NaN
1473732181.118, -0.012863190844655, -0.140589669346809, 0.180576056241989, 32153, 31380, 23446, NaN
1473732182.118, -0.023172989487648, -0.141073733568192, 0.180752843618393, 32161, 31384, 23430, NaN
1473732182.118, -0.0325108282268047, -0.1407710313797, 0.180150896310806, 32143, 31385, 23454, NaN
1473732183.124, -0.0387364514172077, -0.140908256173134, 0.180649504065514, 32152, 31374, 23432, NaN
1473732184.124, -0.0412721484899521, -0.141284719109535, 0.180097550153732, 32149, 31378, 23440, NaN
1473732185.124, -0.0405996702611446, -0.140933588147163, 0.179397940635681, 32149, 31377, 23436, NaN
1473732186.124, -0.0361663959920406, -0.141045391559601, 0.180202350020409, 32147, 31377, 23441, NaN
1473732187.124, -0.0295236352831125, -0.141056835651398, 0.179913997650146, 32143, 31373, 23434, NaN
1473732188.124, -0.0222185347229242, -0.141176953911781, 0.179512336850166, 32140, 31380, 23438, NaN
1473732189.124, -0.0154111031442881, -0.140579789876938, 0.178549975156784, 32157, 31367, 23425, NaN
1473732190.124, -0.00788473151624203, -0.140590131282806, 0.178007110953331, 32150, 31375, 23439, NaN
1473732191.124, -0.000271699740551412, -0.14083756506443, 0.178117141127586, 32146, 31376, 23437, NaN
1473732192.124, 0.00606263196095824, -0.140944510698318, 0.178020715713501, 32153, 31372, 23427, NaN
1473732193.124, 0.0121795181185007, -0.140534073114395, 0.177857503294945, 32145, 31385, 23442, NaN
1473732194.124, 0.0196374002844095, -0.141370534896851, 0.177607998251915, 32146, 31381, 23443, NaN
1473732195.124, 0.0283465292304754, -0.140373557806015, 0.177713185548782, 32152, 31371, 23432, NaN
1473732196.104, 0.0374422073364258, -0.139919444918633, 0.177359119057655, 32144, 31374, 23435, NaN
1473732197.104, 0.0459079034626484, -0.140303865075111, 0.17696350812912, 32161, 31375, 23427, NaN
1473732198.104, 0.0533066987991333, -0.139860242605209, 0.17679737508297, 32162, 31374, 23433, NaN
1473732199.104, 0.059861209243536, -0.140475302934647, 0.177181631326675, 32150, 31375, 23427, NaN
1473732200.104, 0.0644925162196159, -0.13997457921505, 0.177655085921288, 32162, 31380, 23414, NaN
1473732201.104, 0.0673086792230606, -0.139946594834328, 0.177793025970459, 32150, 31370, 23427, NaN
1473732202.104, 0.0680066347122192, -0.139586672186852, 0.177678152918816, 32147, 31374, 23434, NaN
1473732203.104, 0.0668715685606003, -0.139383539557457, 0.177900984883308, 32153, 31386, 23435, NaN
1473732204.104, 0.0642818510532379, -0.14014607667923, 0.177945598959923, 32148, 31367, 23438, NaN
1473732205.114, 0.0593219175934792, -0.139586687088013, 0.17784021794796, 32154, 31371, 23435, NaN
1473732205.114, 0.0534611791372299, -0.140198022127151, 0.177091360092163, 32142, 31379, 23443, NaN
1473732206.122, 0.0475917272269726, -0.141270771622658, 0.176927551627159, 32148, 31390, 23445, NaN
1473732207.122, 0.0426077619194984, -0.140792161226273, 0.17697112262249, 32166, 31378, 23435, NaN
1473732208.122, 0.038114883005619, -0.141382858157158, 0.176667913794518, 32157, 31370, 23433, NaN
1473732209.122, 0.0346075333654881, -0.141544207930565, 0.176393821835518, 32159, 31373, 23431, NaN
1473732209.122, 0.0307385120540857, -0.141557931900024, 0.175574243068695, 32157, 31377, 23439, NaN
1473732210.13, 0.0249439831823111, -0.141095042228699, 0.175276100635529, 32147, 31378, 23431, NaN
1473732211.13, 0.0176642406731844, -0.140422150492668, 0.174515977501869, 32149, 31376, 23434, NaN
1473732212.13, 0.0104836840182543, -0.141465991735458, 0.174345254898071, 32151, 31378, 23423, NaN
1473732213.13, 0.00453546084463596, -0.140507653355598, 0.173763856291771, 32153, 31378, 23421, NaN
1473732213.13, 0.000134657544549555, -0.140969350934029, 0.174591079354286, 32140, 31385, 23443, NaN
1473732214.136, -0.00388659071177244, -0.140667721629143, 0.173435851931572, 32160, 31379, 23430, NaN
1473732215.136, -0.00732482457533479, -0.140168949961662, 0.173065036535263, 32158, 31386, 23432, NaN
1473732216.136, -0.0109725557267666, -0.139927625656128, 0.172872602939606, 32150, 31378, 23435, NaN